Home > Weather > Orange > Past weeks

Flag for USA Past Weather in Orange, California, USA — Yesterday and Last 2 Weeks

Now
77 °F

Scattered clouds.


Feels Like: 79 °F
Forecast: 64 / 85 °F
Wind: 13 mph from Southwest

Location: John Wayne Airport-Orange County Airport

Current Time: Aug 23, 2016 at 2:06:56 PM

Latest Report: Aug 23, 2016 at 12:53 PM


Visibility: 10 mi

Pressure: 30.03 "Hg

Humidity: 60%

Dew Point: 62 °F

Location of OrangeLocation

Past Weather in Orange — Graph

°F

Orange Temperature Yesterday

Maximum temperature yesterday: 78 °F (at 1:53 PM)
Minimum temperature yesterday: 65 °F (at 6:53 AM)
Average temperature yesterday: 71 °F

High & Low Weather Summary for the Past Weeks

 TemperatureHumidityPressure
High90 °F (Aug 15, 1:53 PM)100% (Aug 14, 1:53 PM)30.04 "Hg (Aug 14, 1:53 PM)
Low-4 °F (Aug 15, 4:53 AM)35% (Aug 15, 1:53 PM)29.79 "Hg (Aug 17, 6:53 PM)
Average70 °F72%29.89 "Hg
* Reported Aug 8 12:53 PM — Aug 23 12:53 PM, Orange, Weather by CustomWeather, © 2016

Note: Actual official high and low records may vary slightly from our data, if they occured in-between our weather recording intervals... More about our weather records

Advertising

Orange Weather History for the Previous 24 Hours

Scroll right to see more
 ConditionsComfort  
Time TempWeatherWind HumidityBarometerVisibility
12:53 PM
Tue, Aug 23
77 °FScattered clouds.13 mph60%30.03 "Hg10 mi
11:53 AM78 °FScattered clouds.12 mph58%30.03 "Hg10 mi
10:53 AM75 °FPassing clouds.3 mph64%30.04 "Hg10 mi
9:53 AM72 °FPassing clouds.5 mph71%30.03 "Hg10 mi
8:53 AM70 °FPartly sunny.No wind76%30.02 "Hg10 mi
7:53 AM68 °FOvercast.No wind82%30.01 "Hg9 mi
7:04 AM67 °FPassing clouds.6 mph85%30.00 "Hg10 mi
6:53 AM66 °FPassing clouds.3 mph84%29.98 "Hg9 mi
5:53 AM66 °FPassing clouds.No wind87%29.96 "Hg10 mi
4:53 AM66 °FPassing clouds.5 mph87%29.95 "Hg9 mi
3:53 AM66 °FClear.No wind87%29.95 "Hg10 mi
2:53 AM66 °FClear.No wind87%29.95 "Hg10 mi
1:53 AM66 °FClear.5 mph87%29.95 "Hg10 mi
12:53 AM67 °FClear.3 mph85%29.95 "Hg10 mi
11:53 PM
Mon, Aug 22
68 °FClear.No wind82%29.95 "Hg10 mi
10:53 PM68 °FPassing clouds.No wind82%29.94 "Hg10 mi
9:53 PM69 °FPassing clouds.6 mph79%29.93 "Hg10 mi
8:53 PM69 °FPassing clouds.5 mph76%29.92 "Hg10 mi
7:53 PM70 °FPassing clouds.6 mph76%29.90 "Hg10 mi
6:53 PM72 °FPassing clouds.7 mph68%29.88 "Hg10 mi
5:53 PM75 °FPassing clouds.9 mph64%29.89 "Hg10 mi
4:53 PM76 °FPassing clouds.8 mph60%29.89 "Hg10 mi
3:53 PM77 °FSunny.10 mph62%29.89 "Hg10 mi
2:53 PM77 °FSunny.9 mph62%29.90 "Hg10 mi
Weather by CustomWeather, © 2016

See weather overviewHow to use our weather pages